Wolke Sonne

Wetter Ammerndorf

Gehe zu: Roßtal | Roßtal 2

Tageswerte vom Sonntag, 22.09.2019

Optionen

Tag:
Erweitert:

Alle Werte vom Sonntag, 22.09.2019

Einen Moment bitte, die Daten werden aufbereitet...

UhrzeitTemperaturBoden 10cmBoden 20cmFeuchteLuftdruckNiederschlagEvapotranspirationWindWindböenWindrichtungSolarstrahlungUV-IndexSonne?Uhrzeit
Diagramm IconDiagramm IconDiagramm IconDiagramm IconDiagramm IconDiagramm IconDiagramm IconDiagramm IconDiagramm IconDiagramm IconDiagramm IconDiagramm IconDiagramm Icon
00:008,1 °C 15,0 °C 15,6 °C 81 % 1016,6 hPa 0,0 mm - 0,0 km/h - NO 0,0 W/qm 0,0 nein 00:00
00:058,0 °C 15,0 °C 15,6 °C 81 % 1016,6 hPa 0,0 mm 0,0 mm 0,0 km/h - NO 0,0 W/qm 0,0 nein 00:05
00:107,9 °C 15,0 °C 15,6 °C 82 % 1016,6 hPa 0,0 mm 0,0 mm 0,0 km/h - NO 0,0 W/qm 0,0 nein 00:10
00:157,8 °C 15,0 °C 15,6 °C 82 % 1016,7 hPa 0,0 mm - 0,0 km/h - NO 0,0 W/qm 0,0 nein 00:15
00:207,7 °C 15,0 °C 15,6 °C 81 % 1016,8 hPa 0,0 mm - 0,0 km/h - NO 0,0 W/qm 0,0 nein 00:20
00:257,7 °C 14,4 °C 15,6 °C 82 % 1016,6 hPa 0,0 mm - 0,0 km/h - NO 0,0 W/qm 0,0 nein 00:25
00:307,6 °C 14,4 °C 15,6 °C 82 % 1016,5 hPa 0,0 mm - 0,0 km/h - NO 0,0 W/qm 0,0 nein 00:30
00:357,5 °C 14,4 °C 15,6 °C 82 % 1016,5 hPa 0,0 mm - 0,0 km/h - NO 0,0 W/qm 0,0 nein 00:35
00:407,4 °C 14,4 °C 15,6 °C 82 % 1016,4 hPa 0,0 mm - 0,0 km/h - NO 0,0 W/qm 0,0 nein 00:40
00:457,3 °C 14,4 °C 15,6 °C 82 % 1016,3 hPa 0,0 mm - 0,0 km/h - NO 0,0 W/qm 0,0 nein 00:45
00:507,2 °C 14,4 °C 15,6 °C 83 % 1016,3 hPa 0,0 mm - 0,0 km/h - NO 0,0 W/qm 0,0 nein 00:50
00:557,1 °C 14,4 °C 15,6 °C 83 % 1016,2 hPa 0,0 mm - 0,0 km/h - NO 0,0 W/qm 0,0 nein 00:55
01:007,1 °C 14,4 °C 15,6 °C 84 % 1016,1 hPa 0,0 mm - 0,0 km/h - NO 0,0 W/qm 0,0 nein 01:00
01:056,9 °C 14,4 °C 15,6 °C 84 % 1016,1 hPa 0,0 mm 0,0 mm 0,0 km/h - NO 0,0 W/qm 0,0 nein 01:05
01:106,9 °C 14,4 °C 15,6 °C 84 % 1016,1 hPa 0,0 mm 0,0 mm 0,0 km/h - NO 0,0 W/qm 0,0 nein 01:10
01:156,8 °C 14,4 °C 15,6 °C 84 % 1015,9 hPa 0,0 mm - 0,0 km/h - NO 0,0 W/qm 0,0 nein 01:15
01:206,8 °C 14,4 °C 15,6 °C 84 % 1015,9 hPa 0,0 mm - 0,0 km/h - NO 0,0 W/qm 0,0 nein 01:20
01:256,7 °C 14,4 °C 15,6 °C 84 % 1016,0 hPa 0,0 mm - 0,0 km/h - NO 0,0 W/qm 0,0 nein 01:25
01:306,6 °C 14,4 °C 15,6 °C 84 % 1016,0 hPa 0,0 mm - 0,0 km/h - NO 0,0 W/qm 0,0 nein 01:30
01:356,6 °C 14,4 °C 15,6 °C 84 % 1016,0 hPa 0,0 mm - 0,0 km/h - NO 0,0 W/qm 0,0 nein 01:35
01:406,5 °C 14,4 °C 15,6 °C 84 % 1016,0 hPa 0,0 mm - 0,0 km/h - NO 0,0 W/qm 0,0 nein 01:40
01:456,4 °C 14,4 °C 15,6 °C 85 % 1015,9 hPa 0,0 mm - 0,0 km/h - NO 0,0 W/qm 0,0 nein 01:45
01:506,3 °C 14,4 °C 15,6 °C 85 % 1015,9 hPa 0,0 mm - 0,0 km/h - NO 0,0 W/qm 0,0 nein 01:50
01:556,3 °C 14,4 °C 15,6 °C 85 % 1015,8 hPa 0,0 mm - 0,0 km/h - NO 0,0 W/qm 0,0 nein 01:55
UhrzeitTemperaturBoden 10cmBoden 20cmFeuchteLuftdruckNiederschlagEvapotranspirationWindWindböenWindrichtungSolarstrahlungUV-IndexSonne?Uhrzeit
02:006,2 °C 14,4 °C 15,6 °C 85 % 1015,9 hPa 0,0 mm - 0,0 km/h - NO 0,0 W/qm 0,0 nein 02:00
02:056,1 °C 14,4 °C 15,6 °C 85 % 1015,7 hPa 0,0 mm 0,0 mm 0,0 km/h - NO 0,0 W/qm 0,0 nein 02:05
02:106,1 °C 14,4 °C 15,6 °C 86 % 1015,8 hPa 0,0 mm 0,0 mm 0,0 km/h - NO 0,0 W/qm 0,0 nein 02:10
02:156,0 °C 14,4 °C 15,6 °C 86 % 1015,8 hPa 0,0 mm - 0,0 km/h - OSO 0,0 W/qm 0,0 nein 02:15
02:205,9 °C 13,9 °C 15,6 °C 86 % 1015,8 hPa 0,0 mm - 0,0 km/h - OSO 0,0 W/qm 0,0 nein 02:20
02:255,8 °C 13,9 °C 15,6 °C 86 % 1015,8 hPa 0,0 mm - 0,0 km/h - OSO 0,0 W/qm 0,0 nein 02:25
02:305,7 °C 13,9 °C 15,6 °C 86 % 1015,7 hPa 0,0 mm - 0,0 km/h - OSO 0,0 W/qm 0,0 nein 02:30
02:355,7 °C 13,9 °C 15,6 °C 86 % 1015,7 hPa 0,0 mm - 0,0 km/h - OSO 0,0 W/qm 0,0 nein 02:35
02:405,6 °C 13,9 °C 15,0 °C 86 % 1015,6 hPa 0,0 mm - 0,0 km/h - OSO 0,0 W/qm 0,0 nein 02:40
02:455,6 °C 13,9 °C 15,0 °C 87 % 1015,7 hPa 0,0 mm - 0,0 km/h - OSO 0,0 W/qm 0,0 nein 02:45
02:505,5 °C 13,9 °C 15,0 °C 87 % 1015,7 hPa 0,0 mm - 0,0 km/h - OSO 0,0 W/qm 0,0 nein 02:50
02:555,4 °C 13,9 °C 15,0 °C 87 % 1015,8 hPa 0,0 mm - 0,0 km/h - OSO 0,0 W/qm 0,0 nein 02:55
03:005,4 °C 13,9 °C 15,0 °C 87 % 1015,9 hPa 0,0 mm - 0,0 km/h - OSO 0,0 W/qm 0,0 nein 03:00
03:055,3 °C 13,9 °C 15,0 °C 87 % 1015,8 hPa 0,0 mm 0,0 mm 0,0 km/h - OSO 0,0 W/qm 0,0 nein 03:05
03:105,3 °C 13,9 °C 15,0 °C 87 % 1015,8 hPa 0,0 mm 0,0 mm 0,0 km/h - OSO 0,0 W/qm 0,0 nein 03:10
03:155,2 °C 13,9 °C 15,0 °C 87 % 1015,7 hPa 0,0 mm - 0,0 km/h - OSO 0,0 W/qm 0,0 nein 03:15
03:205,2 °C 13,9 °C 15,0 °C 87 % 1015,6 hPa 0,0 mm - 0,0 km/h - OSO 0,0 W/qm 0,0 nein 03:20
03:255,2 °C 13,9 °C 15,0 °C 88 % 1015,5 hPa 0,0 mm - 0,0 km/h - OSO 0,0 W/qm 0,0 nein 03:25
03:305,1 °C 13,9 °C 15,0 °C 88 % 1015,5 hPa 0,0 mm - 0,0 km/h - OSO 0,0 W/qm 0,0 nein 03:30
03:355,1 °C 13,9 °C 15,0 °C 88 % 1015,5 hPa 0,0 mm - 0,0 km/h - OSO 0,0 W/qm 0,0 nein 03:35
03:405,0 °C 13,9 °C 15,0 °C 88 % 1015,5 hPa 0,0 mm - 0,0 km/h - OSO 0,0 W/qm 0,0 nein 03:40
03:455,0 °C 13,9 °C 15,0 °C 88 % 1015,5 hPa 0,0 mm - 0,0 km/h - SO 0,0 W/qm 0,0 nein 03:45
03:504,9 °C 13,9 °C 15,0 °C 88 % 1015,5 hPa 0,0 mm - 0,0 km/h - SO 0,0 W/qm 0,0 nein 03:50
03:554,8 °C 13,9 °C 15,0 °C 88 % 1015,4 hPa 0,0 mm - 0,0 km/h - SO 0,0 W/qm 0,0 nein 03:55
UhrzeitTemperaturBoden 10cmBoden 20cmFeuchteLuftdruckNiederschlagEvapotranspirationWindWindböenWindrichtungSolarstrahlungUV-IndexSonne?Uhrzeit
04:004,7 °C 13,9 °C 15,0 °C 88 % 1015,3 hPa 0,0 mm - 0,0 km/h - SO 0,0 W/qm 0,0 nein 04:00
04:054,7 °C 13,9 °C 15,0 °C 88 % 1015,6 hPa 0,0 mm 0,0 mm 0,0 km/h - SO 0,0 W/qm 0,0 nein 04:05
04:104,6 °C 13,9 °C 15,0 °C 88 % 1015,6 hPa 0,0 mm 0,0 mm 0,0 km/h - SO 0,0 W/qm 0,0 nein 04:10
04:154,6 °C 13,9 °C 15,0 °C 89 % 1015,5 hPa 0,0 mm - 0,0 km/h - SO 0,0 W/qm 0,0 nein 04:15
04:204,5 °C 13,9 °C 15,0 °C 89 % 1015,5 hPa 0,0 mm - 0,0 km/h - SO 0,0 W/qm 0,0 nein 04:20
04:254,4 °C 13,9 °C 15,0 °C 89 % 1015,4 hPa 0,0 mm - 0,0 km/h - SO 0,0 W/qm 0,0 nein 04:25
04:304,4 °C 13,9 °C 15,0 °C 89 % 1015,2 hPa 0,0 mm - 0,0 km/h - SO 0,0 W/qm 0,0 nein 04:30
04:354,4 °C 13,3 °C 15,0 °C 89 % 1015,2 hPa 0,0 mm - 0,0 km/h - SO 0,0 W/qm 0,0 nein 04:35
04:404,3 °C 13,3 °C 15,0 °C 89 % 1015,2 hPa 0,0 mm - 0,0 km/h - SO 0,0 W/qm 0,0 nein 04:40
04:454,3 °C 13,3 °C 15,0 °C 89 % 1015,2 hPa 0,0 mm - 0,0 km/h - SO 0,0 W/qm 0,0 nein 04:45
04:504,2 °C 13,3 °C 15,0 °C 89 % 1015,2 hPa 0,0 mm - 0,0 km/h - SO 0,0 W/qm 0,0 nein 04:50
04:554,2 °C 13,3 °C 15,0 °C 89 % 1015,2 hPa 0,0 mm - 0,0 km/h - SO 0,0 W/qm 0,0 nein 04:55
05:004,2 °C 13,3 °C 15,0 °C 89 % 1015,1 hPa 0,0 mm - 0,0 km/h - SO 0,0 W/qm 0,0 nein 05:00
05:054,1 °C 13,3 °C 15,0 °C 89 % 1015,1 hPa 0,0 mm 0,0 mm 0,0 km/h - SO 0,0 W/qm 0,0 nein 05:05
05:104,1 °C 13,3 °C 15,0 °C 89 % 1015,1 hPa 0,0 mm 0,0 mm 0,0 km/h - SO 0,0 W/qm 0,0 nein 05:10
05:154,0 °C 13,3 °C 15,0 °C 89 % 1015,1 hPa 0,0 mm - 0,0 km/h - SO 0,0 W/qm 0,0 nein 05:15
05:203,9 °C 13,3 °C 15,0 °C 89 % 1015,0 hPa 0,0 mm - 0,0 km/h - SO 0,0 W/qm 0,0 nein 05:20
05:253,9 °C 13,3 °C 15,0 °C 89 % 1015,0 hPa 0,0 mm - 0,0 km/h - SO 0,0 W/qm 0,0 nein 05:25
05:303,8 °C 13,3 °C 15,0 °C 89 % 1015,1 hPa 0,0 mm - 0,0 km/h - SO 0,0 W/qm 0,0 nein 05:30
05:353,8 °C 13,3 °C 15,0 °C 89 % 1015,1 hPa 0,0 mm - 0,0 km/h - SO 0,0 W/qm 0,0 nein 05:35
05:403,7 °C 13,3 °C 15,0 °C 89 % 1015,1 hPa 0,0 mm - 0,0 km/h - SO 0,0 W/qm 0,0 nein 05:40
05:453,7 °C 13,3 °C 15,0 °C 89 % 1015,1 hPa 0,0 mm - 0,0 km/h - SO 0,0 W/qm 0,0 nein 05:45
05:503,6 °C 13,3 °C 15,0 °C 89 % 1015,1 hPa 0,0 mm - 0,0 km/h - SO 0,0 W/qm 0,0 nein 05:50
05:553,6 °C 13,3 °C 15,0 °C 89 % 1015,1 hPa 0,0 mm - 0,0 km/h - SO 0,0 W/qm 0,0 nein 05:55
UhrzeitTemperaturBoden 10cmBoden 20cmFeuchteLuftdruckNiederschlagEvapotranspirationWindWindböenWindrichtungSolarstrahlungUV-IndexSonne?Uhrzeit
06:003,5 °C 13,3 °C 15,0 °C 89 % 1015,0 hPa 0,0 mm - 0,0 km/h - SO 0,0 W/qm 0,0 nein 06:00
06:053,5 °C 13,3 °C 15,0 °C 89 % 1014,9 hPa 0,0 mm 0,0 mm 0,0 km/h - SO 0,0 W/qm 0,0 nein 06:05
06:103,4 °C 13,3 °C 15,0 °C 89 % 1014,8 hPa 0,0 mm 0,0 mm 0,0 km/h - SO 0,0 W/qm 0,0 nein 06:10
06:153,4 °C 13,3 °C 15,0 °C 89 % 1014,8 hPa 0,0 mm - 0,0 km/h - SO 0,0 W/qm 0,0 nein 06:15
06:203,3 °C 13,3 °C 15,0 °C 89 % 1014,8 hPa 0,0 mm - 0,0 km/h - SO 0,0 W/qm 0,0 nein 06:20
06:253,3 °C 13,3 °C 15,0 °C 90 % 1014,8 hPa 0,0 mm - 0,0 km/h - SO 0,0 W/qm 0,0 nein 06:25
06:303,3 °C 13,3 °C 15,0 °C 90 % 1014,8 hPa 0,0 mm - 0,0 km/h - SO 0,0 W/qm 0,0 nein 06:30
06:353,2 °C 13,3 °C 15,0 °C 90 % 1014,8 hPa 0,0 mm - 0,0 km/h - SO 0,0 W/qm 0,0 nein 06:35
06:403,2 °C 13,3 °C 15,0 °C 90 % 1014,9 hPa 0,0 mm - 0,0 km/h - SO 0,0 W/qm 0,0 nein 06:40
06:453,1 °C 13,3 °C 15,0 °C 90 % 1015,0 hPa 0,0 mm - 0,0 km/h - SO 0,0 W/qm 0,0 nein 06:45
06:503,1 °C 13,3 °C 15,0 °C 90 % 1014,9 hPa 0,0 mm - 0,0 km/h - SO 0,0 W/qm 0,0 nein 06:50
06:553,1 °C 13,3 °C 15,0 °C 90 % 1014,8 hPa 0,0 mm - 0,0 km/h - SO 0,0 W/qm 0,0 nein 06:55
07:003,0 °C 12,8 °C 15,0 °C 90 % 1014,8 hPa 0,0 mm - 0,0 km/h - SO 5,0 W/qm 0,0 nein 07:00
07:053,0 °C 12,8 °C 15,0 °C 90 % 1014,8 hPa 0,0 mm 0,0 mm 0,0 km/h - SO 7,0 W/qm 0,0 nein 07:05
07:102,9 °C 12,8 °C 15,0 °C 90 % 1014,9 hPa 0,0 mm 0,0 mm 0,0 km/h - SO 9,0 W/qm 0,0 nein 07:10
07:152,9 °C 12,8 °C 15,0 °C 90 % 1015,0 hPa 0,0 mm - 0,0 km/h - SO 11,0 W/qm 0,0 nein 07:15
07:202,9 °C 12,8 °C 15,0 °C 90 % 1015,1 hPa 0,0 mm - 0,0 km/h - SO 12,0 W/qm 0,0 nein 07:20
07:252,8 °C 12,8 °C 15,0 °C 90 % 1015,1 hPa 0,0 mm - 0,0 km/h - SO 16,0 W/qm 0,0 nein 07:25
07:302,8 °C 12,8 °C 15,0 °C 90 % 1015,1 hPa 0,0 mm - 0,0 km/h - SO 18,0 W/qm 0,0 nein 07:30
07:352,8 °C 12,8 °C 15,0 °C 90 % 1015,1 hPa 0,0 mm - 0,0 km/h - SO 19,0 W/qm 0,0 nein 07:35
07:402,8 °C 12,8 °C 15,0 °C 90 % 1015,1 hPa 0,0 mm - 0,0 km/h - SO 21,0 W/qm 0,0 nein 07:40
07:452,8 °C 12,8 °C 14,4 °C 91 % 1015,1 hPa 0,0 mm - 0,0 km/h - SO 23,0 W/qm 0,0 nein 07:45
07:502,8 °C 12,8 °C 14,4 °C 91 % 1015,0 hPa 0,0 mm - 0,0 km/h - SO 25,0 W/qm 0,0 nein 07:50
07:552,9 °C 12,8 °C 14,4 °C 91 % 1014,9 hPa 0,0 mm - 0,0 km/h - SO 26,0 W/qm 0,0 nein 07:55
UhrzeitTemperaturBoden 10cmBoden 20cmFeuchteLuftdruckNiederschlagEvapotranspirationWindWindböenWindrichtungSolarstrahlungUV-IndexSonne?Uhrzeit
08:003,0 °C 12,8 °C 14,4 °C 91 % 1014,9 hPa 0,0 mm - 0,0 km/h - SO 28,0 W/qm 0,0 nein 08:00
08:053,2 °C 12,8 °C 14,4 °C 92 % 1014,7 hPa 0,0 mm 0,0 mm 0,0 km/h - ONO 30,0 W/qm 0,0 nein 08:05
08:103,3 °C 12,8 °C 14,4 °C 92 % 1014,8 hPa 0,0 mm 0,0 mm 1,4 km/h - ONO 35,0 W/qm 0,0 nein 08:10
08:153,3 °C 12,8 °C 14,4 °C 92 % 1014,8 hPa 0,0 mm - 1,4 km/h - ONO 40,0 W/qm 0,0 nein 08:15
08:203,4 °C 12,8 °C 14,4 °C 92 % 1014,8 hPa 0,0 mm - 0,0 km/h - ONO 42,0 W/qm 0,0 nein 08:20
08:253,5 °C 12,8 °C 14,4 °C 92 % 1014,8 hPa 0,0 mm - 0,0 km/h - ONO 42,0 W/qm 0,0 nein 08:25
08:303,6 °C 12,8 °C 14,4 °C 92 % 1014,7 hPa 0,0 mm - 0,0 km/h - ONO 44,0 W/qm 0,0 nein 08:30
08:353,7 °C 12,8 °C 14,4 °C 92 % 1014,7 hPa 0,0 mm - 0,0 km/h - ONO 46,0 W/qm 0,0 nein 08:35
08:403,9 °C 12,8 °C 14,4 °C 92 % 1014,6 hPa 0,0 mm - 0,0 km/h - ONO 47,0 W/qm 0,0 nein 08:40
08:454,1 °C 12,8 °C 14,4 °C 92 % 1014,6 hPa 0,0 mm - 0,0 km/h - ONO 49,0 W/qm 0,0 nein 08:45
08:504,3 °C 12,8 °C 14,4 °C 93 % 1014,7 hPa 0,0 mm - 0,0 km/h - S 51,0 W/qm 0,0 nein 08:50
08:554,7 °C 12,8 °C 14,4 °C 93 % 1014,6 hPa 0,0 mm - 1,4 km/h - S 53,0 W/qm 0,0 nein 08:55
09:005,0 °C 12,8 °C 14,4 °C 93 % 1014,6 hPa 0,0 mm - 1,4 km/h - S 53,0 W/qm 0,0 nein 09:00
09:055,3 °C 12,8 °C 14,4 °C 93 % 1014,4 hPa 0,0 mm 0,0 mm 0,0 km/h - S 265,0 W/qm 0,6 ja 09:05
09:105,6 °C 12,8 °C 14,4 °C 93 % 1014,3 hPa 0,0 mm 0,0 mm 0,0 km/h - S 278,0 W/qm 0,7 ja 09:10
09:155,9 °C 12,8 °C 14,4 °C 93 % 1014,4 hPa 0,0 mm - 1,4 km/h - S 292,0 W/qm 0,8 ja 09:15
09:206,3 °C 12,8 °C 14,4 °C 93 % 1014,4 hPa 0,0 mm - 1,4 km/h - S 306,0 W/qm 0,8 ja 09:20
09:256,8 °C 12,8 °C 14,4 °C 94 % 1014,2 hPa 0,0 mm - 1,4 km/h - NNO 320,0 W/qm 0,9 ja 09:25
09:307,6 °C 12,8 °C 14,4 °C 93 % 1014,0 hPa 0,0 mm - 1,4 km/h - SO 332,0 W/qm 1,0 ja 09:30
09:358,1 °C 12,8 °C 14,4 °C 92 % 1014,0 hPa 0,0 mm - 1,4 km/h - SO 341,0 W/qm 1,0 ja 09:35
09:408,5 °C 12,8 °C 14,4 °C 91 % 1013,9 hPa 0,0 mm - 0,0 km/h - OSO 350,0 W/qm 1,1 ja 09:40
09:458,9 °C 12,8 °C 14,4 °C 90 % 1013,9 hPa 0,0 mm - 1,4 km/h - S 360,0 W/qm 1,2 ja 09:45
09:509,7 °C 12,8 °C 14,4 °C 88 % 1013,8 hPa 0,0 mm - 1,4 km/h - O 373,0 W/qm 1,3 ja 09:50
09:5510,1 °C 12,8 °C 14,4 °C 85 % 1013,6 hPa 0,0 mm - 1,4 km/h - SSO 385,0 W/qm 1,3 ja 09:55
UhrzeitTemperaturBoden 10cmBoden 20cmFeuchteLuftdruckNiederschlagEvapotranspirationWindWindböenWindrichtungSolarstrahlungUV-IndexSonne?Uhrzeit
10:0010,7 °C 12,8 °C 14,4 °C 82 % 1013,4 hPa 0,0 mm - 1,4 km/h - NNW 396,0 W/qm 1,4 ja 10:00
10:0511,1 °C 12,8 °C 14,4 °C 80 % 1013,4 hPa 0,0 mm 0,2 mm 1,4 km/h - S 406,0 W/qm 1,5 ja 10:05
10:1011,6 °C 12,8 °C 14,4 °C 77 % 1013,3 hPa 0,0 mm 0,2 mm 3,2 km/h - O 417,0 W/qm 1,5 ja 10:10
10:1512,2 °C 12,8 °C 14,4 °C 75 % 1013,1 hPa 0,0 mm - 3,2 km/h - ONO 427,0 W/qm 1,6 ja 10:15
10:2012,6 °C 12,8 °C 14,4 °C 73 % 1013,0 hPa 0,0 mm - 3,2 km/h - SSO 439,0 W/qm 1,7 ja 10:20
10:2512,8 °C 12,8 °C 14,4 °C 71 % 1012,8 hPa 0,0 mm - 1,4 km/h - S 450,0 W/qm 1,7 ja 10:25
10:3013,2 °C 12,8 °C 14,4 °C 69 % 1012,8 hPa 0,0 mm - 1,4 km/h - SO 461,0 W/qm 1,8 ja 10:30
10:3513,4 °C 12,8 °C 14,4 °C 68 % 1012,7 hPa 0,0 mm - 3,2 km/h - SSW 471,0 W/qm 1,9 ja 10:35
10:4013,8 °C 12,8 °C 14,4 °C 67 % 1012,6 hPa 0,0 mm - 3,2 km/h - NNO 480,0 W/qm 1,9 ja 10:40
10:4514,3 °C 12,8 °C 14,4 °C 66 % 1012,6 hPa 0,0 mm - 3,2 km/h - SSO 490,0 W/qm 2,0 ja 10:45
10:5014,8 °C 12,8 °C 14,4 °C 63 % 1012,5 hPa 0,0 mm - 3,2 km/h - SSO 503,0 W/qm 2,1 ja 10:50
10:5515,2 °C 12,8 °C 14,4 °C 63 % 1012,3 hPa 0,0 mm - 3,2 km/h - NW 513,0 W/qm 2,2 ja 10:55
11:0015,5 °C 12,8 °C 14,4 °C 60 % 1012,3 hPa 0,0 mm - 3,2 km/h - SSO 517,0 W/qm 2,2 ja 11:00
11:0515,8 °C 13,3 °C 14,4 °C 60 % 1012,1 hPa 0,0 mm 0,4 mm 4,7 km/h - S 526,0 W/qm 2,2 ja 11:05
11:1016,1 °C 13,3 °C 14,4 °C 60 % 1012,0 hPa 0,0 mm 0,4 mm 4,7 km/h - SO 529,0 W/qm 2,3 ja 11:10
11:1516,4 °C 13,3 °C 14,4 °C 58 % 1011,8 hPa 0,0 mm - 4,7 km/h - SSO 548,0 W/qm 2,4 ja 11:15
11:2016,7 °C 13,3 °C 14,4 °C 58 % 1011,7 hPa 0,0 mm - 4,7 km/h - SO 563,0 W/qm 2,4 ja 11:20
11:2516,9 °C 13,3 °C 14,4 °C 57 % 1011,7 hPa 0,0 mm - 4,7 km/h - SO 561,0 W/qm 2,5 ja 11:25
11:3017,2 °C 13,3 °C 14,4 °C 57 % 1011,5 hPa 0,0 mm - 3,2 km/h - ONO 570,0 W/qm 2,6 ja 11:30
11:3517,3 °C 13,3 °C 14,4 °C 56 % 1011,3 hPa 0,0 mm - 4,7 km/h - NO 577,0 W/qm 2,6 ja 11:35
11:4017,5 °C 13,3 °C 14,4 °C 57 % 1011,3 hPa 0,0 mm - 3,2 km/h - SSO 561,0 W/qm 2,7 ja 11:40
11:4517,9 °C 13,3 °C 14,4 °C 55 % 1011,1 hPa 0,0 mm - 3,2 km/h - S 570,0 W/qm 2,7 ja 11:45
11:5018,1 °C 13,3 °C 14,4 °C 55 % 1011,0 hPa 0,0 mm - 4,7 km/h - SSO 599,0 W/qm 2,8 ja 11:50
11:5518,2 °C 13,3 °C 14,4 °C 54 % 1010,9 hPa 0,0 mm - 3,2 km/h - NO 585,0 W/qm 2,8 ja 11:55
UhrzeitTemperaturBoden 10cmBoden 20cmFeuchteLuftdruckNiederschlagEvapotranspirationWindWindböenWindrichtungSolarstrahlungUV-IndexSonne?Uhrzeit
12:0018,3 °C 13,3 °C 14,4 °C 54 % 1010,8 hPa 0,0 mm - 3,2 km/h - S 598,0 W/qm 2,8 ja 12:00
12:0518,4 °C 13,3 °C 14,4 °C 54 % 1010,8 hPa 0,0 mm 0,8 mm 3,2 km/h - ONO 610,0 W/qm 2,9 ja 12:05
12:1018,3 °C 13,3 °C 14,4 °C 54 % 1010,6 hPa 0,0 mm 0,8 mm 4,7 km/h - S 612,0 W/qm 2,9 ja 12:10
12:1518,6 °C 13,9 °C 14,4 °C 55 % 1010,6 hPa 0,0 mm - 3,2 km/h - SO 615,0 W/qm 3,0 ja 12:15
12:2018,9 °C 13,9 °C 14,4 °C 53 % 1010,6 hPa 0,0 mm - 3,2 km/h - S 661,0 W/qm 3,1 ja 12:20
12:2519,4 °C 13,9 °C 14,4 °C 52 % 1010,3 hPa 0,0 mm - 1,4 km/h - S 582,0 W/qm 2,9 ja 12:25
12:3019,8 °C 13,9 °C 14,4 °C 50 % 1010,0 hPa 0,0 mm - 1,4 km/h - S 659,0 W/qm 3,2 ja 12:30
12:3520,1 °C 13,9 °C 14,4 °C 49 % 1009,9 hPa 0,0 mm - 3,2 km/h - SW 628,0 W/qm 3,2 ja 12:35
12:4020,3 °C 13,9 °C 14,4 °C 49 % 1010,0 hPa 0,0 mm - 3,2 km/h - SSW 496,0 W/qm 3,0 ja 12:40
12:4520,4 °C 13,9 °C 14,4 °C 49 % 1009,9 hPa 0,0 mm - 3,2 km/h - S 524,0 W/qm 2,9 ja 12:45
12:5020,6 °C 13,9 °C 14,4 °C 49 % 1009,7 hPa 0,0 mm - 3,2 km/h - S 622,0 W/qm 3,1 ja 12:50
12:5520,7 °C 13,9 °C 14,4 °C 48 % 1009,6 hPa 0,0 mm - 3,2 km/h - S 454,0 W/qm 2,6 ja 12:55
13:0020,7 °C 13,9 °C 14,4 °C 48 % 1009,5 hPa 0,0 mm - 4,7 km/h - S 622,0 W/qm 3,2 ja 13:00
13:0520,7 °C 14,4 °C 14,4 °C 48 % 1009,6 hPa 0,0 mm 1,1 mm 3,2 km/h - ONO 643,0 W/qm 3,2 ja 13:05
13:1020,6 °C 14,4 °C 14,4 °C 48 % 1009,4 hPa 0,0 mm 1,1 mm 3,2 km/h - S 631,0 W/qm 3,1 ja 13:10
13:1520,8 °C 14,4 °C 14,4 °C 49 % 1009,4 hPa 0,0 mm - 4,7 km/h - S 512,0 W/qm 2,9 ja 13:15
13:2021,1 °C 14,4 °C 14,4 °C 48 % 1009,3 hPa 0,0 mm - 1,4 km/h - SO 513,0 W/qm 2,8 ja 13:20
13:2521,3 °C 14,4 °C 14,4 °C 47 % 1009,2 hPa 0,0 mm - 1,4 km/h - S 673,0 W/qm 3,3 ja 13:25
13:3021,6 °C 14,4 °C 14,4 °C 47 % 1009,2 hPa 0,0 mm - 3,2 km/h - NNO 638,0 W/qm 3,2 ja 13:30
13:3521,9 °C 14,4 °C 14,4 °C 46 % 1009,1 hPa 0,0 mm - 3,2 km/h - S 615,0 W/qm 3,1 ja 13:35
13:4022,1 °C 14,4 °C 14,4 °C 45 % 1009,0 hPa 0,0 mm - 3,2 km/h - SSO 628,0 W/qm 3,1 ja 13:40
13:4522,2 °C 15,0 °C 14,4 °C 45 % 1009,1 hPa 0,0 mm - 4,7 km/h - SSW 515,0 W/qm 2,8 ja 13:45
13:5022,2 °C 15,0 °C 14,4 °C 45 % 1009,0 hPa 0,0 mm - 4,7 km/h - SO 526,0 W/qm 2,8 ja 13:50
13:5522,1 °C 15,0 °C 14,4 °C 45 % 1008,9 hPa 0,0 mm - 3,2 km/h - SSO 538,0 W/qm 2,8 ja 13:55
UhrzeitTemperaturBoden 10cmBoden 20cmFeuchteLuftdruckNiederschlagEvapotranspirationWindWindböenWindrichtungSolarstrahlungUV-IndexSonne?Uhrzeit
14:0022,2 °C 15,0 °C 15,0 °C 45 % 1008,9 hPa 0,0 mm - 3,2 km/h - S 540,0 W/qm 2,9 ja 14:00
14:0522,3 °C 15,0 °C 15,0 °C 45 % 1008,9 hPa 0,0 mm 1,5 mm 3,2 km/h - SSW 519,0 W/qm 2,8 ja 14:05
14:1022,4 °C 15,0 °C 15,0 °C 45 % 1008,6 hPa 0,0 mm 1,5 mm 3,2 km/h - O 587,0 W/qm 3,0 ja 14:10
14:1522,3 °C 15,0 °C 15,0 °C 45 % 1008,8 hPa 0,0 mm - 3,2 km/h - SSW 599,0 W/qm 2,9 ja 14:15
14:2022,4 °C 15,0 °C 15,0 °C 45 % 1008,8 hPa 0,0 mm - 3,2 km/h - SSO 559,0 W/qm 2,8 ja 14:20
14:2522,4 °C 15,0 °C 15,0 °C 45 % 1008,6 hPa 0,0 mm - 4,7 km/h - S 582,0 W/qm 2,8 ja 14:25
14:3022,6 °C 15,0 °C 15,0 °C 45 % 1008,6 hPa 0,0 mm - 3,2 km/h - SO 520,0 W/qm 2,6 ja 14:30
14:3522,6 °C 15,6 °C 15,0 °C 44 % 1008,5 hPa 0,0 mm - 3,2 km/h - SW 445,0 W/qm 2,4 ja 14:35
14:4022,7 °C 15,6 °C 15,0 °C 45 % 1008,5 hPa 0,0 mm - 4,7 km/h - SSW 482,0 W/qm 2,5 ja 14:40
14:4522,7 °C 15,6 °C 15,0 °C 45 % 1008,4 hPa 0,0 mm - 4,7 km/h - SSW 494,0 W/qm 2,4 ja 14:45
14:5022,8 °C 15,6 °C 15,0 °C 45 % 1008,4 hPa 0,0 mm - 4,7 km/h - S 543,0 W/qm 2,4 ja 14:50
14:5522,8 °C 15,6 °C 15,0 °C 44 % 1008,2 hPa 0,0 mm - 4,7 km/h - SSO 308,0 W/qm 1,9 ja 14:55
15:0022,8 °C 15,6 °C 15,0 °C 45 % 1008,2 hPa 0,0 mm - 1,4 km/h - SW 297,0 W/qm 1,8 ja 15:00
15:0522,7 °C 15,6 °C 15,0 °C 45 % 1008,1 hPa 0,0 mm 1,8 mm 3,2 km/h - WSW 288,0 W/qm 1,7 ja 15:05
15:1022,6 °C 15,6 °C 15,0 °C 46 % 1008,0 hPa 0,0 mm 1,8 mm 3,2 km/h - S 253,0 W/qm 1,6 nein 15:10
15:1522,5 °C 15,6 °C 15,0 °C 46 % 1008,0 hPa 0,0 mm - 1,4 km/h - SSW 202,0 W/qm 1,4 nein 15:15
15:2022,3 °C 15,6 °C 15,0 °C 46 % 1008,0 hPa 0,0 mm - 3,2 km/h - SSW 195,0 W/qm 1,3 nein 15:20
15:2522,2 °C 15,6 °C 15,0 °C 47 % 1008,0 hPa 0,0 mm - 4,7 km/h - S 239,0 W/qm 1,4 nein 15:25
15:3022,2 °C 16,1 °C 15,0 °C 47 % 1007,9 hPa 0,0 mm - 3,2 km/h - S 292,0 W/qm 1,4 ja 15:30
15:3522,1 °C 16,1 °C 15,0 °C 47 % 1008,0 hPa 0,0 mm - 0,0 km/h - O 313,0 W/qm 1,4 ja 15:35
15:4022,0 °C 16,1 °C 15,0 °C 47 % 1008,0 hPa 0,0 mm - 0,0 km/h - SW 320,0 W/qm 1,5 ja 15:40
15:4522,1 °C 16,1 °C 15,0 °C 47 % 1008,0 hPa 0,0 mm - 1,4 km/h - SSW 260,0 W/qm 1,4 ja 15:45
15:5022,1 °C 16,1 °C 15,0 °C 47 % 1008,0 hPa 0,0 mm - 1,4 km/h - SSO 239,0 W/qm 1,3 nein 15:50
15:5522,1 °C 16,1 °C 15,0 °C 47 % 1008,1 hPa 0,0 mm - 3,2 km/h - SW 229,0 W/qm 1,2 nein 15:55
UhrzeitTemperaturBoden 10cmBoden 20cmFeuchteLuftdruckNiederschlagEvapotranspirationWindWindböenWindrichtungSolarstrahlungUV-IndexSonne?Uhrzeit
16:0022,1 °C 16,1 °C 15,0 °C 48 % 1008,1 hPa 0,0 mm - 3,2 km/h - S 216,0 W/qm 1,1 nein 16:00
16:0522,0 °C 16,1 °C 15,0 °C 48 % 1008,0 hPa 0,0 mm 2,0 mm 3,2 km/h - S 202,0 W/qm 1,0 nein 16:05
16:1022,0 °C 16,1 °C 15,0 °C 47 % 1008,0 hPa 0,0 mm 2,0 mm 1,4 km/h - SSO 188,0 W/qm 1,0 nein 16:10
16:1522,0 °C 16,1 °C 15,0 °C 48 % 1008,0 hPa 0,0 mm - 1,4 km/h - SSW 183,0 W/qm 0,9 nein 16:15
16:2022,0 °C 16,1 °C 15,0 °C 48 % 1008,0 hPa 0,0 mm - 1,4 km/h - SSW 178,0 W/qm 0,9 nein 16:20
16:2521,9 °C 16,1 °C 15,0 °C 48 % 1008,1 hPa 0,0 mm - 1,4 km/h - SW 167,0 W/qm 0,8 nein 16:25
16:3021,9 °C 16,1 °C 15,0 °C 49 % 1008,0 hPa 0,0 mm - 1,4 km/h - S 155,0 W/qm 0,8 nein 16:30
16:3521,8 °C 16,1 °C 15,6 °C 49 % 1008,0 hPa 0,0 mm - 1,4 km/h - ONO 148,0 W/qm 0,7 nein 16:35
16:4021,8 °C 16,1 °C 15,6 °C 49 % 1008,0 hPa 0,0 mm - 1,4 km/h - SSO 146,0 W/qm 0,7 nein 16:40
16:4521,7 °C 16,1 °C 15,6 °C 49 % 1008,0 hPa 0,0 mm - 1,4 km/h - SSO 146,0 W/qm 0,6 nein 16:45
16:5021,6 °C 16,1 °C 15,6 °C 49 % 1008,0 hPa 0,0 mm - 1,4 km/h - SSW 144,0 W/qm 0,6 nein 16:50
16:5521,6 °C 16,1 °C 15,6 °C 50 % 1008,0 hPa 0,0 mm - 1,4 km/h - S 160,0 W/qm 0,6 nein 16:55
17:0021,5 °C 16,7 °C 15,6 °C 50 % 1008,0 hPa 0,0 mm - 1,4 km/h - S 156,0 W/qm 0,6 nein 17:00
17:0521,5 °C 16,7 °C 15,6 °C 50 % 1007,9 hPa 0,0 mm 2,1 mm 1,4 km/h - S 153,0 W/qm 0,6 nein 17:05
17:1021,4 °C 16,7 °C 15,6 °C 49 % 1007,9 hPa 0,0 mm 2,1 mm 1,4 km/h - S 142,0 W/qm 0,6 nein 17:10
17:1521,4 °C 16,7 °C 15,6 °C 49 % 1007,9 hPa 0,0 mm - 1,4 km/h - S 128,0 W/qm 0,5 nein 17:15
17:2021,4 °C 16,7 °C 15,6 °C 50 % 1007,9 hPa 0,0 mm - 1,4 km/h - S 116,0 W/qm 0,5 nein 17:20
17:2521,3 °C 16,7 °C 15,6 °C 50 % 1007,9 hPa 0,0 mm - 1,4 km/h - S 111,0 W/qm 0,0 nein 17:25
17:3021,3 °C 16,7 °C 15,6 °C 51 % 1007,9 hPa 0,0 mm - 1,4 km/h - S 107,0 W/qm 0,0 nein 17:30
17:3521,2 °C 16,7 °C 15,6 °C 51 % 1008,0 hPa 0,0 mm - 1,4 km/h - S 102,0 W/qm 0,0 nein 17:35
17:4021,2 °C 16,7 °C 15,6 °C 52 % 1008,1 hPa 0,0 mm - 0,0 km/h - S 95,0 W/qm 0,0 nein 17:40
17:4521,1 °C 16,7 °C 15,6 °C 52 % 1008,1 hPa 0,0 mm - 0,0 km/h - S 88,0 W/qm 0,0 nein 17:45
17:5021,0 °C 16,7 °C 15,6 °C 53 % 1008,1 hPa 0,0 mm - 0,0 km/h - S 81,0 W/qm 0,0 nein 17:50
17:5520,9 °C 16,7 °C 15,6 °C 52 % 1008,2 hPa 0,0 mm - 0,0 km/h - S 74,0 W/qm 0,0 nein 17:55
UhrzeitTemperaturBoden 10cmBoden 20cmFeuchteLuftdruckNiederschlagEvapotranspirationWindWindböenWindrichtungSolarstrahlungUV-IndexSonne?Uhrzeit
18:0020,9 °C 16,7 °C 15,6 °C 53 % 1008,2 hPa 0,0 mm - 0,0 km/h - S 70,0 W/qm 0,0 nein 18:00
18:0520,8 °C 16,7 °C 15,6 °C 55 % 1008,2 hPa 0,0 mm 2,2 mm 0,0 km/h - S 69,0 W/qm 0,0 nein 18:05
18:1020,6 °C 16,7 °C 15,6 °C 56 % 1008,1 hPa 0,0 mm 2,2 mm 0,0 km/h - S 63,0 W/qm 0,0 nein 18:10
18:1520,5 °C 16,7 °C 15,6 °C 55 % 1008,0 hPa 0,0 mm - 0,0 km/h - S 58,0 W/qm 0,0 nein 18:15
18:2020,3 °C 16,7 °C 15,6 °C 56 % 1008,1 hPa 0,0 mm - 0,0 km/h - S 54,0 W/qm 0,0 nein 18:20
Gesamt: 11,8 °C 14,2 °C 14,9 °C 72 % 1012,6 hPa 0,0 mm 24,4 mm 1,3 km/h nan km/h 0 197,4 W/qm 0,9 ja

Insgesamt 221 Zeilen mal 13 Spalten = 2873 Werte werden angezeigt.

www.wetter-rosstal.de   •   www.wetter-franken.de   •   www.lightningmaps.org   •   Start   •   Kontakt / Datenschutz   •   PC-Kümmerer